Temp
21 22 21 21 20 20 20 20 20 20 20 20 20 20 21 20 19 20 19 20 19 20 20 20 21 21 21 21 21 22 22 21 21 22 22 22 22 22 23 22 22 22 22
18 19 21 21 20 20 20 20 20 20 20 20 20 20 20 20 20 19 20 20 19 19 20 20 20 21 21 22 21 21 21 21 21 21 21 21 22 22 22 22 22 22 22
16 19 19 19 20 20 21 21 21 20 21 21 21 21 21 21 20 20 20 20 20 19 19 19 20 20 20 20 21 21 21 21 21 21 21 20 21 21 21 22 22 22 22
17 18 19 20 18 20 20 20 20 20 20 20 20 20 20 20 19 19 20 20 20 19 20 19 19 19 19 20 20 20 20 21 21 20 20 20 21 21 21 21 22 22 22
16 17 17 19 19 20 20 18 19 20 20 19 19 20 19 19 20 20 20 20 20 20 20 20 20 20 20 19 20 20 20 20 20 20 20 20 21 21 21 21 22 22 23
16 16 18 16 17 19 19 17 18 18 18 19 19 19 19 19 20 20 20 19 20 20 20 20 20 20 20 20 20 20 20 20 21 21 20 20 21 22 22 22 22 21 22
15 16 16 16 17 17 16 19 19 19 19 18 19 19 19 19 19 19 19 19 19 20 20 20 20 20 20 20 20 20 20 20 20 20 20 20 21 21 21 21 21 20 21
14 14 15 16 16 16 16 17 18 19 19 19 19 18 18 19 19 19 19 19 20 19 19 19 19 20 20 20 20 20 20 20 20 20 20 21 21 21 21 20 20 20 21
13 13 13 14 15 16 16 16 17 17 17 18 18 18 18 18 18 19 19 19 20 20 20 20 20 20 20 20 19 20 20 20 21 21 21 21 21 21 20 20 20 20 21
13 14 15 15 15 15 16 16 16 16 17 18 17 17 17 18 18 18 18 18 19 19 19 19 20 20 20 20 20 20 20 20 20 21 21 21 21 21 20 20 20 20 20
12 13 13 14 14 15 15 16 16 16 17 16 16 16 16 17 17 17 18 18 18 18 18 19 19 18 18 19 19 19 20 20 20 20 20 20 20 20 20 20 20 20 20
10 11 12 12 13 13 14 15 15 15 16 15 15 15 15 15 16 16 17 18 18 18 18 18 18 18 18 18 19 19 19 19 20 20 20 20 20 20 20 20 20 20 20
10 10 10 10 11 12 12 13 13 14 14 14 14 14 15 15 15 16 16 16 16 18 17 17 17 18 19 19 19 19 19 19 19 19 20 21 21 21 20 20 20 20 19
9 9 8 9 9 10 11 11 12 12 13 13 14 14 14 15 16 16 16 17 16 16 16 16 16 17 17 19 20 20 19 19 19 19 20 20 20 20 20 20 20 20 19
9 9 8 8 9 9 10 10 11 11 11 12 12 13 13 13 14 15 15 16 17 17 17 17 17 18 18 18 18 19 19 19 19 20 20 20 20 20 20 20 20 19 18
8 8 8 9 9 8 8 10 11 10 10 11 12 12 12 12 13 13 14 14 15 16 17 17 18 18 18 18 18 18 18 18 18 19 19 19 19 19 20 20 20 19 19
5 6 7 7 8 7 7 7 8 10 10 10 11 11 11 11 12 12 12 13 14 14 15 16 16 17 17 17 17 18 18 18 19 19 18 18 19 20 20 20 20 20 19
4 4 4 5 5 5 5 5 5 6 7 8 9 10 10 10 10 11 12 12 12 12 13 14 14 15 15 14 14 15 16 16 17 18 19 19 19 18 18 19 19 20 20
5 5 4 4 4 4 3 3 2 3 4 5 6 7 7 8 9 10 10 11 11 12 11 12 11 12 12 12 13 14 14 15 16 16 17 18 18 19 19 19 18 18 18
5 4 3 3 2 2 2 2 2 2 2 2 3 4 4 5 7 8 9 9 9 10 10 10 11 13 13 13 14 14 15 16 16 16 16 17 18 18 18 18 18 17 18
4 5 4 4 3 2 2 1 1 1 1 2 1 2 2 3 4 5 6 7 8 8 9 9 10 11 12 12 13 14 14 15 16 15 15 16 16 16 17 18 18 18 18
4 4 4 4 3 3 2 1 0 -0 -1 -1 -0 0 0 1 2 3 4 5 6 8 7 8 9 9 10 11 11 12 14 15 16 15 15 15 15 16 16 17 18 19 18
4 4 3 3 2 2 2 1 -0 -1 -2 -3 -2 -2 -1 -0 -0 1 2 3 4 5 7 7 8 8 9 10 11 11 11 13 13 12 13 14 15 15 15 16 17 17 16
4 3 2 1 1 0 1 0 -1 -1 -2 -3 -3 -3 -2 -2 -1 -0 0 1 2 3 4 5 7 8 8 9 10 10 10 10 11 11 12 13 13 14 15 15 16 17 17
3 2 2 1 1 0 -0 -0 -2 -2 -3 -3 -4 -4 -4 -3 -2 -2 -1 -1 0 1 1 1 3 6 7 7 7 7 8 9 10 11 12 13 13 14 14 15 16 17 17
3 2 2 1 1 0 -1 -0 -1 -2 -2 -3 -4 -4 -4 -4 -3 -3 -2 -2 -1 0 1 1 2 3 4 5 6 7 8 8 10 11 12 13 13 13 13 14 14 15 14
Height
1575 1576 1579 1581 1584 1587 1589 1591 1593 1596 1599 1600 1601 1601 1601 1601 1602 1603 1605 1606 1607 1608 1608 1609 1610 1611 1612 1613 1613 1613 1614 1614 1613 1612 1613 1612 1610 1609 1608 1607 1605 1602 1600
1572 1575 1576 1578 1581 1584 1588 1591 1593 1593 1594 1598 1599 1599 1599 1601 1601 1603 1603 1604 1606 1607 1607 1608 1609 1610 1611 1611 1612 1612 1612 1612 1611 1610 1609 1609 1608 1607 1605 1603 1602 1600 1599
1570 1572 1575 1576 1578 1584 1587 1589 1592 1593 1593 1594 1595 1597 1598 1599 1598 1600 1602 1603 1603 1604 1605 1607 1607 1607 1608 1608 1609 1609 1610 1610 1609 1609 1607 1608 1606 1605 1602 1599 1598 1597 1596
1564 1570 1572 1573 1576 1580 1583 1587 1590 1591 1592 1592 1592 1593 1595 1596 1596 1597 1598 1599 1601 1602 1603 1603 1604 1604 1605 1606 1606 1607 1606 1606 1606 1605 1605 1604 1603 1602 1600 1597 1595 1594 1592
1559 1566 1567 1565 1573 1574 1578 1583 1586 1589 1589 1590 1591 1591 1591 1593 1594 1594 1595 1595 1597 1599 1599 1600 1600 1600 1601 1602 1603 1603 1603 1602 1602 1601 1601 1600 1599 1598 1596 1594 1591 1588 1587
1559 1559 1565 1564 1570 1569 1570 1580 1582 1583 1585 1584 1585 1587 1588 1589 1589 1590 1592 1592 1594 1595 1595 1596 1596 1596 1597 1599 1599 1599 1599 1598 1598 1597 1597 1597 1595 1594 1593 1591 1589 1585 1580
1560 1561 1563 1565 1566 1570 1575 1576 1578 1580 1579 1580 1579 1581 1583 1583 1585 1587 1587 1588 1590 1590 1591 1591 1592 1592 1593 1594 1595 1595 1595 1595 1595 1594 1592 1592 1591 1591 1589 1587 1586 1583 1580
1562 1561 1563 1564 1566 1569 1569 1570 1571 1573 1572 1574 1575 1574 1576 1577 1579 1581 1582 1583 1583 1585 1585 1586 1587 1587 1588 1590 1590 1589 1588 1588 1589 1589 1588 1586 1586 1586 1585 1584 1582 1579 1575
1564 1565 1564 1564 1565 1565 1564 1563 1565 1566 1566 1568 1569 1571 1571 1572 1573 1575 1575 1576 1577 1578 1579 1580 1580 1579 1581 1583 1583 1582 1581 1580 1581 1582 1581 1580 1580 1580 1580 1579 1577 1576 1570
1564 1564 1563 1563 1564 1564 1565 1564 1563 1562 1562 1563 1563 1564 1566 1566 1567 1568 1569 1569 1568 1568 1569 1570 1572 1573 1574 1576 1575 1575 1572 1572 1574 1573 1572 1571 1572 1571 1573 1573 1572 1569 1568
1561 1562 1562 1563 1562 1562 1562 1562 1561 1561 1560 1558 1558 1559 1561 1561 1560 1561 1560 1561 1561 1561 1561 1562 1563 1564 1565 1566 1567 1566 1565 1567 1566 1565 1564 1563 1563 1563 1563 1563 1563 1563 1561
1559 1560 1560 1560 1560 1560 1559 1559 1559 1558 1557 1556 1556 1557 1556 1555 1556 1555 1555 1555 1554 1554 1554 1555 1555 1554 1555 1556 1557 1557 1557 1558 1557 1556 1555 1554 1554 1554 1554 1554 1554 1554 1553
1553 1553 1554 1555 1556 1556 1556 1556 1556 1555 1555 1554 1553 1553 1552 1552 1552 1550 1549 1549 1548 1547 1546 1546 1547 1546 1547 1547 1547 1548 1548 1547 1547 1546 1544 1544 1544 1545 1546 1545 1545 1544 1542
1552 1552 1552 1550 1548 1548 1549 1550 1550 1551 1551 1550 1549 1549 1549 1548 1547 1546 1544 1543 1542 1541 1540 1540 1539 1538 1537 1538 1538 1539 1537 1537 1537 1536 1536 1535 1535 1535 1535 1535 1534 1533 1531
1548 1548 1548 1547 1547 1546 1545 1545 1545 1546 1547 1545 1545 1545 1544 1542 1542 1541 1539 1537 1535 1534 1533 1533 1532 1531 1530 1530 1529 1529 1528 1526 1525 1525 1524 1524 1524 1525 1525 1525 1524 1523 1521
1545 1545 1544 1543 1542 1542 1541 1540 1541 1540 1540 1539 1540 1540 1539 1537 1536 1536 1534 1532 1531 1529 1527 1526 1525 1524 1522 1521 1521 1519 1519 1517 1516 1516 1515 1515 1514 1515 1514 1514 1515 1514 1512
1545 1544 1542 1541 1540 1538 1537 1535 1532 1532 1533 1533 1534 1533 1531 1530 1529 1528 1527 1526 1525 1523 1521 1520 1518 1517 1515 1514 1511 1510 1507 1507 1508 1507 1508 1506 1506 1505 1505 1505 1505 1504 1503
1544 1543 1541 1540 1538 1536 1534 1532 1531 1528 1524 1523 1525 1525 1524 1524 1523 1522 1520 1517 1517 1516 1515 1513 1511 1510 1508 1506 1504 1502 1500 1499 1499 1498 1498 1498 1499 1499 1496 1494 1494 1495 1494
1542 1540 1538 1536 1534 1532 1530 1529 1527 1525 1522 1518 1515 1515 1516 1515 1512 1511 1511 1510 1509 1508 1507 1506 1504 1502 1500 1499 1496 1494 1493 1491 1490 1489 1489 1489 1487 1487 1486 1484 1483 1485 1488
1540 1537 1534 1532 1530 1527 1525 1522 1521 1519 1516 1514 1511 1508 1507 1506 1505 1504 1503 1502 1501 1501 1499 1497 1494 1492 1490 1489 1487 1485 1483 1481 1480 1480 1479 1479 1479 1478 1476 1475 1474 1476 1473
1536 1534 1531 1527 1524 1521 1519 1516 1513 1512 1510 1507 1504 1501 1500 1498 1495 1495 1495 1494 1492 1490 1488 1486 1483 1483 1482 1479 1478 1475 1473 1471 1470 1471 1469 1468 1469 1468 1468 1467 1465 1466 1464
1534 1531 1527 1524 1521 1517 1513 1510 1508 1505 1502 1498 1494 1492 1491 1488 1487 1485 1484 1483 1482 1479 1477 1474 1474 1473 1472 1470 1467 1464 1462 1461 1460 1459 1459 1458 1458 1459 1458 1457 1455 1451 1448
1530 1528 1526 1523 1520 1515 1510 1507 1503 1499 1494 1489 1485 1482 1481 1478 1476 1473 1472 1471 1469 1467 1466 1465 1464 1462 1461 1459 1457 1454 1451 1450 1449 1449 1447 1447 1447 1447 1447 1448 1446 1443 1441
1527 1525 1523 1522 1518 1514 1508 1502 1498 1492 1486 1481 1478 1475 1471 1468 1465 1463 1462 1459 1457 1455 1454 1454 1454 1451 1449 1447 1445 1443 1441 1440 1438 1438 1439 1436 1435 1436 1437 1437 1437 1436 1437
1523 1521 1520 1518 1513 1508 1503 1498 1493 1488 1481 1476 1472 1467 1462 1458 1455 1453 1450 1447 1446 1443 1442 1441 1441 1439 1437 1435 1433 1432 1431 1430 1428 1427 1427 1426 1425 1425 1426 1427 1427 1428 1428
1518 1517 1516 1513 1508 1504 1500 1493 1487 1481 1475 1469 1465 1460 1455 1451 1447 1443 1440 1437 1435 1433 1431 1430 1429 1428 1426 1423 1422 1422 1420 1420 1419 1417 1416 1414 1413 1413 1414 1416 1417 1417 1419
Wind_Speed
22 22 22 21 20 19 18 18 18 14 8 13 9 10 9 10 6 4 7 9 10 6 9 11 14 15 14 14 9 12 9 11 13 17 18 19 23 25 24 19 14 17 16
20 23 22 22 21 22 21 20 21 19 18 16 11 8 13 10 9 9 8 9 8 9 8 15 14 15 13 20 17 14 14 14 15 18 19 19 16 12 14 15 16 17 17
3 19 23 22 19 19 21 26 24 21 23 21 21 19 14 15 12 14 12 9 12 12 9 8 9 12 11 13 14 19 22 21 17 16 16 18 16 20 24 18 15 11 13
30 15 17 20 23 20 18 17 17 19 19 18 17 17 18 15 16 19 16 13 12 15 16 14 13 12 11 11 11 12 15 18 19 20 22 23 21 19 15 20 18 19 22
20 19 11 12 19 22 16 19 19 18 16 16 15 19 19 19 17 16 16 15 13 12 15 18 18 17 16 17 18 18 17 16 15 17 17 17 18 21 24 24 26 27 25
13 15 20 22 18 12 23 17 24 20 20 19 20 19 18 23 21 17 14 15 18 18 18 16 17 18 21 19 17 20 20 19 20 21 21 22 22 23 22 23 25 27 30
10 9 8 17 15 19 26 24 21 23 23 22 24 23 23 22 21 24 21 24 24 24 24 24 22 19 19 22 22 22 25 24 23 23 25 25 27 25 22 20 20 23 26
17 14 10 8 11 13 13 16 20 19 16 18 20 21 29 29 25 24 23 26 29 26 26 28 28 28 25 23 21 25 25 24 25 25 27 26 24 20 21 22 25 27 30
12 12 11 10 7 2 4 10 13 14 16 18 20 20 21 22 23 25 28 28 27 30 33 32 32 33 32 31 31 31 31 33 32 32 33 34 32 28 24 26 28 28 35
7 7 6 7 6 6 6 5 4 6 11 18 22 20 18 18 21 24 25 26 30 31 31 33 34 35 36 36 37 38 40 40 38 37 38 38 37 37 34 35 36 36 35
6 5 4 3 4 5 7 8 8 7 6 7 9 12 16 17 19 18 21 24 24 28 29 31 31 30 30 31 28 29 32 32 34 36 36 37 36 33 31 30 29 28 29
7 8 9 9 8 8 7 8 9 9 8 9 12 13 10 11 13 17 16 18 23 28 29 31 31 32 31 30 28 28 33 38 39 41 41 40 38 36 35 33 33 32 33
11 10 8 10 11 10 10 9 8 9 12 9 5 9 12 10 12 14 17 19 19 22 26 32 34 36 38 38 36 39 38 36 34 34 39 41 39 38 39 39 39 39 40
10 8 7 6 7 7 8 10 11 13 14 13 15 17 20 20 18 17 17 16 21 22 20 22 25 29 29 31 35 38 40 44 46 46 45 44 42 40 40 41 41 40 40
11 8 7 9 9 10 8 9 9 9 13 18 20 20 20 23 21 21 20 20 22 22 25 27 28 29 32 33 34 35 34 35 35 36 41 46 46 44 43 41 40 36 36
14 15 15 16 14 14 16 18 19 15 14 17 18 18 20 22 22 20 21 21 23 25 26 26 26 28 31 31 32 34 34 31 32 34 33 33 35 35 35 33 33 33 32
15 17 18 18 18 20 20 21 24 24 24 24 21 18 16 18 18 18 20 22 25 26 27 27 29 29 30 32 33 33 36 35 32 30 38 39 37 35 37 35 29 29 30
15 15 16 20 22 22 21 22 25 28 31 31 28 27 25 22 25 25 22 23 27 27 29 28 28 27 27 26 27 29 30 31 35 37 33 35 37 38 34 37 37 38 42
17 18 19 21 20 19 20 22 24 26 29 33 36 33 28 26 24 22 22 21 23 27 25 27 22 23 23 28 29 30 33 36 30 32 35 35 38 38 35 38 38 37 35
19 18 19 20 21 22 25 24 24 27 30 30 33 36 36 31 28 25 23 23 22 24 26 31 34 33 32 31 31 33 33 33 35 32 32 35 30 30 32 34 35 33 37
21 23 24 24 24 24 24 25 27 28 30 33 34 34 34 34 39 37 32 30 25 27 32 37 43 41 38 36 34 33 34 34 34 35 36 29 36 35 32 32 36 37 34
21 23 24 26 27 27 27 27 27 28 30 32 34 34 30 31 33 34 38 38 34 31 30 34 38 36 36 38 38 35 34 34 34 33 38 38 37 36 31 30 29 35 31
22 21 22 24 27 29 29 28 28 28 29 29 31 33 33 34 34 34 38 41 43 45 44 42 41 41 42 40 38 38 36 34 34 32 33 38 39 35 33 31 27 24 22
21 17 18 22 25 30 31 30 31 31 30 30 29 29 31 32 33 34 37 36 39 46 51 52 50 50 48 43 40 38 37 34 33 33 33 36 35 33 35 33 30 27 23
20 17 19 21 25 27 32 32 30 32 32 31 30 29 30 29 29 31 35 36 38 39 43 44 42 42 42 40 39 38 37 35 33 31 32 33 35 34 33 34 32 31 28
19 18 21 23 24 28 29 34 33 32 32 30 29 29 26 27 28 27 27 30 34 36 36 36 34 33 35 36 36 35 35 35 33 29 31 31 33 32 32 36 34 30 27
Wind_Direction
217 217 214 215 205 201 203 199 212 215 218 229 236 239 217 199 197 216 222 209 235 224 199 212 225 243 259 254 254 258 261 289 295 288 293 298 303 305 304 311 337 348 354
218 218 224 216 214 207 210 213 217 223 224 223 226 242 230 218 201 225 228 227 235 232 217 228 231 232 256 251 249 252 255 263 286 291 299 310 314 332 330 318 317 323 334
288 221 223 227 220 211 214 218 223 228 232 239 242 244 242 236 237 245 241 239 243 247 239 246 261 255 271 267 261 261 266 267 273 286 298 291 309 320 326 317 318 317 311
223 259 231 220 223 222 220 216 227 228 226 226 235 238 244 249 240 243 251 246 244 253 248 243 252 260 272 283 290 290 281 272 267 270 274 287 292 314 315 323 320 315 315
218 246 274 236 228 214 216 230 232 238 234 238 238 233 232 239 238 237 246 255 257 256 253 249 254 255 258 271 282 286 295 291 273 273 279 283 283 295 303 310 312 312 312
204 236 227 231 204 227 275 237 222 223 229 231 239 243 244 246 246 244 242 253 268 269 270 269 267 265 259 263 263 272 287 290 289 285 285 285 290 295 300 307 312 316 318
135 155 167 200 200 210 218 228 224 223 224 234 238 244 252 248 250 253 245 251 258 262 268 273 275 271 271 265 268 267 275 279 280 283 283 287 293 298 305 304 310 309 308
82 86 102 168 205 216 228 227 223 226 228 230 240 239 240 248 254 258 253 249 249 254 257 260 266 273 274 273 271 265 270 270 272 276 277 284 289 296 294 300 301 298 302
82 75 63 66 76 94 262 261 262 254 252 259 262 261 250 251 253 255 257 259 257 256 256 257 260 264 268 271 273 271 271 272 276 279 281 283 286 289 288 289 286 292 297
63 59 54 49 44 40 38 27 0 293 269 260 264 269 270 273 273 265 261 260 262 258 258 262 262 264 266 266 267 269 272 273 276 278 278 279 281 281 278 276 281 283 286
331 337 342 346 357 355 354 359 355 346 352 345 325 289 276 273 270 274 267 262 262 265 264 265 268 272 273 268 267 270 273 279 278 281 282 282 280 281 282 280 278 277 280
307 316 316 314 312 314 317 333 345 345 331 1 352 345 325 282 286 282 281 275 266 263 263 265 261 260 258 256 259 263 264 265 266 270 272 274 277 279 282 285 288 285 275
294 302 322 332 324 314 316 325 328 341 338 327 0 324 315 331 317 303 301 288 287 273 268 265 266 266 263 263 260 255 259 261 263 267 267 267 270 275 280 283 286 287 285
304 305 308 324 324 323 332 330 328 321 298 302 292 294 302 302 305 308 300 291 286 285 282 281 282 286 291 278 271 267 264 264 263 265 267 269 273 274 276 281 283 287 286
330 330 297 295 295 291 274 279 294 301 306 293 291 299 303 302 309 312 308 301 296 295 297 296 291 288 288 286 284 283 279 273 270 271 269 267 270 274 278 282 283 284 284
346 343 338 327 321 313 303 283 256 264 268 263 269 279 293 296 302 305 305 307 300 292 290 293 295 294 295 292 287 281 278 276 276 281 278 272 267 269 271 276 279 278 279
6 359 352 344 333 320 314 307 303 283 272 267 266 268 273 284 279 290 302 306 300 297 295 292 289 293 294 292 291 291 283 277 273 277 273 278 281 277 275 274 268 267 273
5 354 339 330 327 324 321 308 297 296 300 299 287 271 272 280 284 285 289 288 288 290 294 298 293 291 293 298 295 290 288 286 284 281 282 279 273 269 273 266 269 268 280
3 357 349 344 340 329 309 304 304 305 293 288 291 291 285 274 275 275 279 288 290 292 289 284 282 281 282 284 288 287 284 278 278 281 281 284 279 268 273 270 268 267 275
0 359 351 343 334 329 323 320 309 299 301 304 292 287 291 290 275 275 274 283 286 285 282 281 280 283 285 287 286 286 290 292 279 281 289 284 286 279 276 275 272 269 263
352 355 352 347 340 332 322 312 304 296 293 291 292 294 293 290 283 278 280 286 283 275 272 275 278 281 284 289 288 285 286 285 290 274 281 286 282 284 279 270 268 270 263
342 347 352 356 353 345 335 328 322 312 300 293 290 285 292 289 282 280 272 269 271 268 267 269 274 280 285 288 290 288 284 286 284 286 271 281 270 272 272 281 289 275 282
334 335 345 349 349 349 343 333 324 319 312 304 297 294 292 287 283 283 274 267 269 271 269 276 275 280 288 288 287 288 287 284 286 286 282 275 278 269 270 268 270 275 285
324 325 340 342 343 348 345 337 330 327 323 318 308 297 295 292 286 281 275 275 272 270 273 273 273 278 282 285 285 285 285 282 282 280 282 282 276 272 264 257 260 262 256
316 321 328 331 340 340 344 342 333 328 324 320 313 306 300 297 291 281 279 278 280 281 276 276 276 275 277 281 283 285 285 284 282 281 280 280 275 269 266 265 262 259 259
297 311 322 328 330 337 337 344 338 332 328 324 319 314 309 298 295 291 286 280 278 280 281 281 281 281 281 281 281 283 286 285 280 279 277 277 273 265 263 263 260 257 260